Regional Weather Roundup
Issued by NWS

Home | Current Version | Previous Version | Text Only | Print | Product List | Glossary On
Versions: 1 2 3 4 5 6 7 8 9 10 11 12 13 14 15 16 17 18 19 20 21 22 23 24 25 26 27 28 29 30 31 32 33 34 35 36 37 38 39 40 41 42 43 44 45 46 47 48 49 50
000
ASCA44 KEWX 290020
RWRMX

LATIN AMERICA AND CARIBBEAN REGIONAL WEATHER ROUNDUP
NATIONAL WEATHER SERVICE AUSTIN/SAN ANTONIO TX
700 PM CDT WED SEP 28 2016

NOTE: "FAIR" INDICATED FEW OR NO CLOUDS BELOW 12,000 FEET WITH NO
SIGNIFICANT WEATHER AND/OR OBSTRUCTIONS TO VISIBILITY.

BAJA CALIFORNIA

CITY           SKY/WX    TMP DP  RH WIND       PRES   REMARKS
LORETO           N/A    N/A N/A N/A MISG        N/A
LA PAZ         PTSUNNY   86  70  58 NW12      29.85S HX  90
MEXICALI       SUNNY     95  45  17 S7        29.84S HX  91
S.J. DEL CABO  MOSUNNY   84  72  65 S14       29.86R
TIJUANA        MOSUNNY   81  48  32 W15       29.93R

NORTHWESTERN MEXICO

CITY           SKY/WX    TMP DP  RH WIND       PRES   REMARKS
CULIACAN       PTSUNNY   90  77  66 SW5       29.82R HX 102
DURANGO        CLOUDY    70  57  64 NE8       30.25R
GUAYMAS        PTSUNNY   91  70  49 SW8       29.79S HX  97
HERMOSILLO     PTSUNNY   93  64  38 NW9       29.87F HX  95
CD. JUAREZ     PTSUNNY   82  59  44 SE6       30.10S
LOS MOCHIS     SUNNY     90  70  51 W16       29.83F HX  95
OBREGON        MOSUNNY   95  61  31 W12       29.79S HX  95

NORTHEASTERN MEXICO

CITY           SKY/WX    TMP DP  RH WIND       PRES   REMARKS
CHIHUAHUA      MOSUNNY   75  55  50 E8        30.19S
MATAMOROS      MOCLDY    82  73  74 NE8       29.99S
MONCLOVA       PTCLDY    82  68  61 NE7       30.09R
MONTERREY      CLOUDY    79  64  61 SE5       30.06S
NUEVO LAREDO   PTCLDY    88  68  51 CALM      30.02S HX  91
PIEDRAS NEGRAS   N/A    N/A N/A N/A MISG        N/A
REYNOSA        PTCLDY    82  64  54 NE6       30.00R
SALTILLO       MOCLDY    63  54  72 N9        30.27S
TORREON        MOCLDY    81  61  50 CALM      30.14F
CD. VICTORIA   CLOUDY    79  66  65 N3        30.03R

WESTERN MEXICO

CITY           SKY/WX    TMP DP  RH WIND       PRES   REMARKS
AGUASCALIENTES MOCLDY    66  59  77 N7        30.24S
COLIMA         HVY RAIN  72  70  94 S12       30.02R VSB 1
DEL BAJIO        N/A    N/A N/A N/A MISG        N/A
GUADALAJARA    CLOUDY    68  61  77 N7        30.15R
MANZANILLO     PTSUNNY   84  75  74 SE9       29.84R HX  92
MAZATLAN       PTSUNNY   86  79  79 W7        29.85R HX  99
P. VALLARTA    PTSUNNY   84  77  79 CALM      29.86R HX  94
URUAPAN        TSTM      68  66  94 S7        30.15R
ZACATECAS      PTCLDY    66  54  63 NE10      30.29S

CENTRAL MEXICO

CITY           SKY/WX    TMP DP  RH WIND       PRES   REMARKS
CUERNAVACA     CLOUDY    70  68  94 CALM      30.12R
MEXICO CITY    TSTM      61  55  82 S3        30.35R
MORELIA        CLOUDY    63  63 100 CALM      30.23R
POZA RICA      CLOUDY    77  73  88 S7        30.02R
PUEBLA         CLOUDY    57  55  94 N7        30.34R
QUERETARO      MOCLDY    66  57  72 NE14      30.30R
S. LUIS POTOSI MOCLDY    70  52  52 NE12      30.25R
TAMPICO        MOCLDY    79  75  89 W12       29.98
TOLUCA         LGT RAIN  57  54  88 CALM      30.40R

SOUTHERN MEXICO

CITY           SKY/WX    TMP DP  RH WIND       PRES   REMARKS
ACAPULCO       MOCLDY    86  75  70 E10       29.86R HX  95
B. DE HUATULCO CLOUDY    81  72  74 CALM      29.95R
OAXACA         CLOUDY    68  63  83 N3        30.20R
P. ESCONDIDO   CLOUDY    86  72  62 S5        29.97R HX  92
VERACRUZ       CLOUDY    82  75  78 N14       29.94R
ZIHUATANEJO    MOCLDY    86  75  70 S9        29.86R HX  95

YUCATAN PENINSULA

CITY           SKY/WX    TMP DP  RH WIND       PRES   REMARKS
CAMPECHE       PTCLDY    86  81  84 N12       29.90R HX 102
CANCUN         PTCLDY    82  79  89 NE5       29.99R HX  93
CHETUMAL       PTCLDY    86  77  74 SE12      29.95R HX  97
CD. DEL CARMEN MOCLDY    86  77  74 N10       29.90R HX  97
COZUMEL        PTCLDY    81  75  83 CALM      29.97R
MERIDA         PTCLDY    86  75  70 NE9       29.95R HX  95
MINATITLAN     MOCLDY    82  77  83 N17       29.89R HX  91
TAPACHULA      MOCLDY    84  77  79 CALM      29.83R HX  94
TUX. GUTIERREZ MOCLDY    81  72  74 W7        29.93R
VILLAHERMOSA   MOCLDY    84  75  74 NE5       29.91R HX  92

CENTRAL AMERICA

CITY           SKY/WX    TMP DP  RH WIND       PRES   REMARKS
BELIZE CITY    PTCLDY    84  79  84 E6        29.96S HX  96
MANAGUA        PTCLDY    82  72  69 E7        29.86R THUNDER

CARIBBEAN

CITY           SKY/WX    TMP DP  RH WIND       PRES   REMARKS
ARUBA          PTCLDY    86  79  79 NE14      29.83S HX  99
CURACAO        PTCLDY    84  79  84 NE10      29.86S HX  96
KINGSTON       PTCLDY    90  77  66 VRB2      29.92R HX 102
NASSAU         MOCLDY    86  73  66 CALM      30.05  HX  93
SAN JUAN       PTCLDY    82  81  94 E14       30.00R THUNDER HX  95
SANTO DOMINGO  PTCLDY    84  75  74 NE7       29.94S HX  92
ST. CROIX      CLEAR     79  75  89 E13       29.98R
ST. KITTS      MOCLDY    82  75  78 E25       29.94S
ST. MAARTEN    PTCLDY    84  75  74 E16       29.97R HX  92
ST. THOMAS     LGT RAIN  81  75  83 E13       29.99R

$$




USA.gov is the U.S. government's official web portal to all federal, state and local government web resources and services.